Theta_e
318 323 328 328 327 332 340 343 353 366 363 359 356 355 354 355 354 354 356 357 360 357 355 352 356 355 349 348 348 345 347 342 346 347 346 347 347 350 349 348 349 348 349
316 319 326 328 330 333 336 341 345 355 360 359 359 356 355 354 355 355 354 357 357 357 356 355 354 352 349 350 350 351 344 345 350 342 341 332 339 344 347 348 347 349 353
315 319 320 328 330 330 337 336 342 346 354 357 357 357 357 355 351 352 354 354 355 356 356 355 355 351 350 347 351 353 347 341 347 349 340 330 326 332 341 343 341 341 338
317 318 322 327 327 328 330 339 340 340 344 351 348 348 350 347 348 351 351 354 355 352 355 354 352 352 348 349 350 351 351 348 342 346 345 341 337 326 322 334 338 336 335
315 315 317 321 324 328 331 335 340 343 345 348 350 343 343 343 348 350 351 357 353 353 351 351 350 350 346 350 348 351 351 350 344 340 338 338 336 335 328 320 329 332 333
314 317 319 322 324 326 328 336 338 342 344 344 345 345 344 341 343 343 344 346 345 351 350 348 348 349 349 346 349 351 350 347 344 341 337 335 332 329 328 325 325 324 329
314 315 317 317 323 325 329 327 332 333 337 339 340 341 343 345 341 341 342 343 342 346 350 349 347 347 346 347 346 346 347 347 343 343 340 339 336 335 331 328 325 323 326
314 315 316 318 317 323 326 327 329 330 331 332 336 339 340 335 336 339 340 338 340 343 345 350 337 329 328 333 343 345 346 345 345 344 343 338 338 337 334 330 327 323 325
314 313 314 316 319 323 327 329 329 328 330 332 335 339 337 337 336 339 340 338 343 342 342 344 340 331 325 328 334 342 343 344 345 344 345 344 345 342 339 336 333 328 321
313 313 314 317 318 319 327 329 328 325 323 330 333 330 337 334 336 334 337 339 342 342 342 344 333 324 326 327 336 338 341 342 344 343 344 342 342 341 340 338 337 332 327
311 311 311 313 314 315 316 325 324 322 322 325 320 328 330 331 330 331 331 332 336 340 339 340 337 335 334 324 324 321 324 339 340 341 341 340 339 338 336 337 333 332 331
310 310 310 312 314 315 316 318 322 319 320 321 322 321 329 329 329 329 330 331 328 330 332 337 336 334 329 320 317 313 326 330 335 337 335 335 336 337 335 332 328 325 328
309 309 311 310 311 314 314 315 316 316 318 319 317 321 321 324 326 326 326 328 324 324 326 328 330 331 329 327 331 330 331 327 329 331 331 332 331 329 328 329 328 325 325
309 309 309 309 311 312 313 313 314 315 315 316 316 317 317 323 324 324 323 322 321 320 321 322 326 326 327 327 327 328 330 328 328 330 329 328 326 327 327 327 326 324 322
307 307 308 310 312 313 314 313 313 313 314 314 314 315 317 317 321 320 320 321 319 319 319 319 322 323 326 323 326 325 328 329 328 330 327 328 327 327 327 326 325 322 318
306 308 309 310 311 311 313 314 313 313 315 314 313 313 314 315 315 319 319 320 319 318 318 318 321 322 323 310 309 324 328 329 328 326 325 326 320 317 313 312 312 316 317
306 306 308 310 312 312 313 312 313 313 312 312 312 312 312 312 313 313 318 318 318 316 314 316 317 318 321 312 306 306 326 326 326 325 325 323 323 321 321 311 310 309 308
306 307 307 309 310 311 312 313 311 310 310 309 308 309 310 310 311 312 312 316 318 316 315 315 316 317 319 307 304 305 318 323 328 327 327 327 325 322 323 323 318 318 319
306 307 308 309 310 310 311 310 309 308 308 307 307 306 307 305 305 307 312 313 316 316 315 314 313 313 316 308 305 308 319 318 319 324 329 328 327 316 306 323 321 322 322
306 306 306 308 308 310 310 309 307 306 305 305 305 306 305 305 304 304 305 310 311 314 315 315 316 313 315 307 301 306 320 318 318 316 327 312 323 310 304 320 321 319 319
306 306 307 307 308 309 309 306 305 304 305 305 305 305 305 304 305 304 303 304 308 309 311 312 314 314 315 317 303 300 314 316 319 319 320 322 305 304 303 306 322 318 320
304 304 305 305 306 307 306 304 304 306 305 304 302 303 303 302 302 303 302 303 304 304 305 308 311 312 314 307 305 299 300 312 320 320 321 321 306 301 299 301 307 303 307
303 305 303 303 304 304 303 301 302 303 302 301 301 302 301 300 301 300 300 301 301 300 301 301 303 308 311 312 303 301 297 299 312 321 317 304 301 299 301 300 302 300 313
301 302 300 299 298 299 299 298 298 299 299 298 298 299 298 299 299 299 299 299 299 299 300 301 301 303 307 310 312 312 309 300 305 308 316 313 308 305 310 308 305 313 314
299 298 296 295 295 296 296 296 296 296 295 296 296 297 297 297 297 298 299 298 300 300 299 300 301 302 303 305 297 300 308 303 306 309 316 316 316 315 315 317 315 314 314
295 294 293 292 292 293 294 295 296 295 295 294 294 294 295 296 296 296 297 296 295 295 293 294 297 301 298 294 295 295 294 292 292 303 311 313 314 313 315 315 314 314 311
Wind_Speed
9 6 4 5 7 5 2 4 4 2 4 5 8 8 9 9 9 10 11 9 12 14 13 11 10 11 10 9 8 7 8 6 5 3 3 2 4 4 4 4 5 6 5
11 9 5 6 6 6 5 3 3 4 3 4 4 6 9 10 9 10 12 9 12 14 13 13 13 11 9 9 10 8 6 6 6 5 3 3 3 5 5 4 4 4 3
12 10 11 6 7 4 3 5 6 5 3 5 4 5 6 6 7 9 10 13 13 13 15 15 14 13 11 12 13 8 11 9 5 7 5 4 5 4 2 4 2 1 2
8 7 5 4 5 2 5 1 3 4 3 5 6 8 6 8 9 9 8 11 16 17 17 19 16 16 12 13 11 11 10 9 6 4 4 2 2 2 3 3 3 1 3
13 13 13 9 5 5 3 2 2 1 2 2 4 6 8 8 8 9 10 6 12 18 20 19 20 16 14 12 14 13 14 11 10 6 5 5 3 3 4 4 2 1 3
10 6 9 8 4 4 6 5 5 3 2 3 5 6 8 9 9 9 9 8 9 11 20 21 18 16 15 16 12 12 15 12 8 5 5 5 5 5 4 5 4 4 5
9 6 7 5 5 3 3 6 8 7 7 5 5 6 6 7 9 11 9 10 12 10 14 20 17 15 10 8 14 14 13 15 12 10 6 6 8 6 7 5 5 4 4
7 7 6 5 5 4 4 2 4 6 7 8 7 6 7 6 7 8 9 9 11 13 17 3 10 14 14 16 21 16 14 13 10 11 8 4 4 6 6 6 5 4 4
6 2 2 2 2 5 4 4 5 7 5 7 6 4 7 8 8 9 8 9 10 12 16 11 11 15 26 32 29 20 18 13 12 12 11 7 3 4 4 6 5 6 5
7 2 5 7 8 8 4 4 5 8 3 6 4 6 3 7 8 9 11 11 11 13 15 15 10 15 14 20 7 12 7 10 9 7 8 8 5 5 4 4 4 5 8
4 5 8 8 9 12 9 3 5 8 9 5 8 10 8 7 9 8 9 9 10 11 15 15 6 9 10 5 2 5 24 11 8 6 8 9 7 4 4 2 1 4 3
7 8 8 7 10 10 10 6 4 4 7 9 6 9 4 4 5 6 7 8 10 12 17 14 10 8 10 10 12 8 28 7 8 8 7 7 6 7 5 2 2 2 4
9 8 8 7 9 9 9 10 10 8 7 5 7 8 6 8 5 7 8 7 9 12 19 16 14 11 13 11 12 24 17 6 3 6 9 8 5 5 3 3 3 3 4
10 7 8 7 9 9 10 10 10 10 9 8 10 10 9 8 8 8 11 9 5 5 10 14 22 8 2 3 5 5 5 6 6 6 5 7 7 6 5 3 3 2 2
8 7 9 11 10 8 7 9 10 9 11 9 10 10 10 12 9 9 11 12 10 7 9 8 15 22 6 9 8 10 10 7 7 7 7 8 8 8 6 4 4 3 1
10 13 15 13 8 7 7 8 8 9 11 11 12 11 12 13 13 10 8 9 10 9 10 7 5 11 14 20 7 7 5 6 6 6 6 6 11 9 11 8 7 5 3
11 14 10 10 9 9 6 7 9 9 11 11 14 15 14 15 14 14 9 9 10 11 12 9 5 6 5 20 15 11 4 6 5 6 7 8 7 9 7 9 9 8 10
12 13 13 13 13 13 10 8 10 11 13 13 14 15 15 15 16 13 14 9 10 11 12 12 12 10 10 11 6 5 5 5 6 8 6 6 7 11 11 9 9 9 9
13 12 13 14 15 15 13 12 10 11 12 13 15 15 15 15 14 20 12 10 10 11 11 13 14 15 14 14 12 5 3 2 8 13 12 11 9 9 14 9 8 9 8
13 13 15 16 17 15 11 10 12 12 15 14 14 13 13 15 16 15 14 14 7 11 10 12 13 16 13 13 12 7 4 6 7 20 9 14 14 14 14 10 7 6 8
16 17 17 17 16 14 12 12 11 13 13 14 14 15 15 14 16 13 11 13 13 11 13 13 11 13 11 11 14 15 11 9 8 7 14 9 14 15 16 16 10 12 6
19 21 19 16 15 12 11 13 14 13 12 13 15 17 14 12 12 16 12 12 11 11 11 12 13 11 10 15 15 12 15 14 13 11 11 11 16 17 17 14 14 13 8
19 18 16 15 14 15 15 17 17 16 16 16 14 14 15 13 13 13 14 11 13 11 11 10 10 11 10 11 12 14 16 20 11 10 12 8 5 14 17 20 18 13 6
16 17 19 19 19 18 19 18 17 17 18 15 15 13 15 15 14 12 13 12 13 13 14 13 12 12 11 11 10 9 9 13 9 11 10 10 5 7 9 9 6 9 8
18 18 20 20 20 19 17 16 15 15 15 15 15 15 12 14 14 13 12 12 14 12 12 13 12 11 11 11 5 6 7 5 5 11 10 10 10 8 5 7 8 9 7
21 20 19 20 20 19 18 17 16 16 16 14 12 11 10 10 9 10 10 16 20 16 14 17 13 10 12 4 5 6 7 9 11 5 13 12 11 11 10 9 9 9 10
Wind_Direction
231 219 203 148 98 95 49 326 265 238 201 185 185 202 222 216 225 233 219 219 188 196 204 220 220 234 210 210 203 204 202 211 221 207 251 202 219 220 219 191 228 243 270
236 228 210 158 153 154 144 167 273 280 217 217 227 222 209 225 220 219 229 222 206 199 210 210 227 221 212 212 216 195 200 211 205 190 183 259 244 250 215 215 216 298 279
220 199 219 204 172 150 155 189 186 176 254 272 251 241 260 266 234 218 212 213 214 212 212 217 221 221 214 210 214 197 199 209 208 203 156 204 218 191 163 199 119 321 6
225 241 218 233 149 170 237 299 133 148 214 240 273 274 236 241 248 250 224 209 211 212 212 216 221 218 226 218 209 204 198 204 209 149 186 194 116 245 243 202 189 170 271
224 212 196 189 119 50 358 210 256 131 145 255 312 301 285 269 258 250 248 239 214 207 213 209 212 218 214 226 210 194 195 196 203 173 166 181 169 188 238 265 220 290 245
211 132 84 71 40 10 10 37 40 2 15 330 264 258 270 281 285 289 303 274 253 215 218 219 218 208 219 220 212 200 192 197 187 195 215 170 160 187 188 227 264 252 248
76 66 70 56 40 35 7 3 22 356 339 322 305 285 273 262 263 280 277 274 278 272 224 219 221 229 214 225 242 224 196 193 190 188 196 178 186 183 191 200 235 243 246
86 62 44 8 343 332 24 306 309 306 336 307 302 317 303 286 283 255 249 260 267 273 281 189 185 127 293 278 260 239 206 188 183 180 199 193 216 188 193 190 184 246 247
114 117 261 315 316 307 311 303 302 267 228 284 272 268 284 279 274 280 290 286 284 269 272 265 194 196 212 233 235 236 208 176 173 181 186 190 198 262 222 192 178 213 261
146 211 334 341 330 306 282 276 334 338 303 271 303 296 322 325 321 338 299 264 272 276 282 287 202 226 235 248 276 272 255 198 165 173 165 172 189 211 245 207 173 198 216
289 341 341 318 301 295 300 274 19 1 338 35 4 348 10 358 344 322 330 332 322 286 278 280 271 214 186 147 253 351 282 222 168 157 169 160 169 214 242 284 204 252 248
312 314 292 306 343 350 349 331 13 346 344 335 345 323 334 331 327 316 322 333 330 330 304 272 260 209 226 170 169 143 270 244 167 174 162 178 182 206 233 214 233 246 277
308 291 307 324 316 328 336 323 336 315 303 323 319 311 317 316 328 316 336 347 8 344 317 323 283 215 203 192 205 173 218 217 185 149 151 164 170 178 179 160 66 20 26
286 322 334 304 305 302 297 307 311 312 313 317 321 309 307 275 274 288 308 310 320 344 316 334 317 248 231 202 139 178 200 203 216 165 166 132 153 191 173 136 92 23 325
309 315 294 288 281 252 244 260 272 282 287 290 292 290 295 292 254 259 270 282 295 306 306 353 318 314 223 220 201 195 193 201 187 173 144 148 164 158 164 130 154 143 62
269 272 259 254 295 300 257 260 272 282 290 291 282 279 292 284 285 259 240 258 277 284 294 316 359 313 323 344 225 155 180 180 170 154 156 159 137 152 144 146 155 164 171
288 292 307 337 322 311 321 301 299 316 296 279 274 281 275 275 273 278 245 233 248 262 271 276 268 284 301 292 285 318 223 176 191 179 172 185 171 164 172 194 198 209 212
341 333 321 312 299 288 280 298 300 296 299 304 305 306 300 286 279 272 282 236 220 232 248 260 268 265 257 255 309 225 293 304 222 184 189 195 195 185 185 186 204 212 214
315 313 313 309 308 304 291 277 274 278 275 274 279 279 293 299 312 314 259 271 241 215 230 242 255 257 254 257 256 169 174 251 294 273 186 197 205 206 193 195 200 200 215
313 314 305 297 285 284 299 286 271 264 266 271 275 284 287 289 290 287 323 304 278 287 241 236 237 243 250 259 261 178 200 181 184 267 245 199 203 205 187 189 204 212 223
312 313 300 284 281 278 276 283 289 281 272 276 281 275 268 277 281 281 279 285 303 279 276 269 249 248 255 256 244 212 232 236 214 230 262 254 216 222 199 199 200 216 201
312 305 293 300 306 314 326 306 298 303 298 282 280 276 275 267 269 272 273 273 269 276 291 284 266 256 259 237 250 238 219 238 237 220 233 233 215 210 205 193 208 200 168
295 292 311 331 329 327 315 302 300 298 288 276 264 271 274 265 255 257 267 264 250 256 261 254 267 262 256 248 252 235 212 230 238 230 232 80 293 239 210 198 197 194 190
322 341 334 322 313 306 302 298 298 296 285 274 268 261 258 256 251 255 250 247 255 254 252 247 248 249 263 251 243 250 229 226 226 246 250 250 230 206 220 208 238 202 203
335 329 316 305 301 300 299 295 291 287 286 283 278 265 261 259 254 248 248 247 246 244 248 251 250 253 249 254 76 59 262 348 316 247 223 232 240 239 208 213 194 199 199
316 309 308 302 301 301 301 293 286 278 276 271 271 267 266 266 267 268 261 243 243 243 236 243 248 255 251 198 127 86 32 3 20 299 224 220 222 224 224 205 202 191 196